This demonstration page uses our WeatherBlox Daily Observations layout. Learn more.

38.89511, -77.03637

Hourly Observations for September 7, 2017

Temp ( °F °C ) Dew Point ( °F °C ) Humidity (%) Winds ( mph kmh ) Pressure ( in mb ) Visibility ( mi km ) Precip ( " mm )
12:52 am 00:52 Partly Cloudy 61 16.1 59 15 93 93 W 3 6 29.91 1013 10 16.09344 0 0
1:52 am 01:52 Clear 60 15.6 59 15 96 96 W 5 7 29.91 1013 10 16.09344 0 0
2:52 am 02:52 Partly Cloudy 60 15.6 60 15.6 100 100 W 5 7 29.91 1013 8 12.874752 0 0
3:27 am 03:27 Mostly Cloudy with Mist and Fog 59 15 59 15 100 100 SSW 5 7 29.94 1014 6 9.656064 0 0
3:52 am 03:52 Cloudy 60 15.6 60 15.6 100 100 SW 6 9 29.91 1013 7 11.265408 0 0
4:52 am 04:52 Cloudy 61 16.1 60 15.6 97 97 WSW 6 9 29.91 1013 10 16.09344 0 0
5:02 am 05:02 Cloudy 61 16.1 60 15.6 97 97 WSW 7 11 29.94 1014 10 16.09344 0 0
5:52 am 05:52 Partly Cloudy 60 15.6 59 15 96 96 SSW 3 6 29.91 1013 10 16.09344 0 0
6:18 am 06:18 Mostly Cloudy 60 15.6 59 15 96 96 SSW 3 6 29.94 1014 10 16.09344 0 0
6:33 am 06:33 Partly Cloudy 60 15.6 58 14.4 93 93 SSW 5 7 29.94 1014 10 16.09344 0 0
6:52 am 06:52 Mostly Sunny 59 15 58 14.4 96 96 SW 5 7 29.94 1014 10 16.09344 0 0
7:52 am 07:52 Mostly Sunny 60 15.6 58 14.4 93 93 SW 5 7 29.94 1014 10 16.09344 0 0
8:52 am 08:52 Mostly Sunny 63 17.2 58 14.4 84 84 N 7 11 29.97 1015 10 16.09344 0 0
9:52 am 09:52 Mostly Sunny 67 19.4 57 13.9 71 71 WNW 8 13 29.97 1015 10 16.09344 0 0
10:52 am 10:52 Mostly Sunny 69 20.6 52 11.1 55 55 W 12 19 29.97 1015 10 16.09344 0 0
11:52 am 11:52 Mostly Sunny 70 21.1 52 11.1 53 53 WNW 13 20 30 1016 10 16.09344 0 0
12:52 pm 12:52 Partly Cloudy 71 21.7 51 10.6 49 49 WNW 13 20 30 1016 10 16.09344 0 0
1:52 pm 13:52 Partly Cloudy 73 22.8 51 10.6 46 46 W 14 22 29.97 1015 10 16.09344 0 0
2:52 pm 14:52 Partly Cloudy 74 23.3 51 10.6 45 45 W 12 19 29.97 1015 10 16.09344 0 0
3:52 pm 15:52 Partly Cloudy 74 23.3 49 9.4 41 41 WNW 14 22 29.97 1015 10 16.09344 0 0
4:52 pm 16:52 Partly Cloudy 74 23.3 49 9.4 41 41 W 14 22 30 1016 10 16.09344 0 0
5:52 pm 17:52 Partly Cloudy 73 22.8 48 8.9 41 41 WNW 13 20 30 1016 10 16.09344 0 0
6:52 pm 18:52 Mostly Sunny 71 21.7 49 9.4 46 46 W 9 15 30 1016 10 16.09344 0 0
7:52 pm 19:52 Mostly Clear 69 20.6 50 10 51 51 WSW 5 7 30 1016 10 16.09344 0 0
8:52 pm 20:52 Mostly Clear 68 20 50 10 53 53 W 7 11 30.03 1017 10 16.09344 0 0
9:52 pm 21:52 Mostly Clear 66 18.9 51 10.6 59 59 W 6 9 30.06 1018 10 16.09344 0 0
10:52 pm 22:52 Clear 66 18.9 49 9.4 54 54 W 6 9 30.06 1018 10 16.09344 0 0
11:52 pm 23:52 Clear 64 17.8 49 9.4 58 58 WNW 5 7 30.09 1019 10 16.09344 0 0

Powered by AerisWeather